Tracking 19717 objects as of 25-Jun-2019
HD Live streaming from Space Station
objects crossing your sky now

COSMOS 2110 (GLONASS)

Track COSMOS 2110 (GLONASS) now!
COSMOS 2110 (GLONASS) is classified as:


NORAD ID: 21007
Int'l Code: 1990-110B
Perigee: 19,022.1 km
Apogee: 19,252.0 km
Inclination: 64.1 °
Period: 675.7 minutes
Semi major axis: 25508 km
RCS: 1.5445 m2 (large)
Launch date: December 8, 1990
Source: Commonwealth of Independent States (former USSR) (CIS)
Launch site: TYURATAM MISSILE AND SPACE COMPLEX (TTMTR)
aabbcc
Your satellite tracking list
Your tracking list is empty




NASA's NSSDC Master Catalog

Two Line Element Set (TLE):
1 21007U 90110B   19174.75747144  .00000082  00000-0  00000+0 0  9991
2 21007  64.1413 159.1855 0045062 194.5500  86.8663  2.13101270222130
Source of the keplerian elements: AFSPC